CW7959 Weather Reports


Display with metric or nautical units.
time (UTC)temp
F
wind
direction
speed
MPH
gust
MPH
rain 1hr
in
rain 24hr
in
rain mn
in
humidity
%
barometer
mb
20260904070405 55 199 5.0 10.0 0.20 0.79 0.34 97 998.3
20260904065905 55 205 5.0 12.0 0.20 0.79 0.34 97 998.4
20260904065405 54 215 2.0 5.0 0.20 0.79 0.34 97 998.4
20260904064405 54 212 0.0 8.0 0.17 0.74 0.29 97 998.3
20260904063905 54 212 4.0 12.0 0.19 0.73 0.28 97 998.4
20260904062905 55 218 4.0 14.0 0.18 0.71 0.26 97 998.4
20260904062405 55 231 1.0 13.0 0.13 0.66 0.21 97 998.4
20260904061905 55 215 2.0 5.0 0.12 0.65 0.20 97 998.4
20260904061405 55 205 1.0 7.0 0.06 0.58 0.13 97 998.3
20260904060905 55 205 1.0 5.0 0.06 0.58 0.13 97 998.4
20260904055905 55 207 3.0 7.0 0.06 0.58 0.13 97 998.4
20260904055406 54 200 0.0 5.0 0.06 0.58 0.13 97 998.6
20260904054905 54 200 2.0 6.0 0.05 0.57 0.13 97 998.6
20260904054405 54 200 0.0 3.0 0.04 0.57 0.12 97 998.5
20260904053405 54 200 2.0 9.0 0.01 0.54 0.09 97 998.7
20260904052905 54 202 1.0 12.0 0.00 0.53 0.08 97 998.7
20260904051905 54 202 2.0 7.0 0.02 0.53 0.08 97 998.5
20260904051404 54 202 2.0 7.0 0.03 0.53 0.08 97 998.5
20260904050904 54 202 1.0 6.0 0.05 0.53 0.08 97 998.7
20260904050405 54 202 2.0 12.0 0.06 0.53 0.08 97 998.8
20260904045904 54 224 5.0 13.0 0.06 0.53 0.08 97 998.8
20260904045405 54 211 5.0 12.0 0.06 0.53 0.08 97 998.9
20260904044407 54 212 4.0 7.0 0.06 0.53 0.08 97 998.9
20260904043905 54 223 2.0 6.0 0.06 0.53 0.08 97 999.0
20260904043406 54 223 3.0 6.0 0.06 0.53 0.08 97 999.2
20260904042906 54 225 2.0 8.0 0.06 0.53 0.08 97 999.3
20260904042406 54 231 3.0 12.0 0.06 0.53 0.08 97 999.2
20260904040906 54 215 1.0 6.0 0.01 0.48 0.03 97 999.3
20260904040405 54 215 0.0 1.0 0.00 0.47 0.02 97 999.2
20260904035904 54 215 0.0 2.0 0.00 0.47 0.02 97 999.2
20260904035405 54 215 0.0 2.0 0.00 0.47 0.02 97 999.3
20260904034904 54 215 3.0 9.0 0.00 0.47 0.02 97 999.3
20260904034405 54 216 5.0 12.0 0.00 0.47 0.02 97 999.5
20260904033905 54 213 0.0 1.0 0.00 0.47 0.02 97 999.6
20260904033405 54 213 0.0 2.0 0.00 0.47 0.02 97 999.6
20260904032905 54 213 0.0 3.0 0.00 0.47 0.02 97 999.7
20260904032405 54 213 1.0 3.0 0.01 0.47 0.02 97 999.7
20260904031405 54 213 0.0 0.0 0.02 0.47 0.02 97 999.8
20260904030905 53 213 0.0 3.0 0.02 0.47 0.02 97 999.9
20260904030405 53 213 0.0 2.0 0.02 0.47 0.02 97 1000.0
20260904025905 53 213 0.0 2.0 0.02 0.47 0.02 97 1000.1
20260904023405 53 213 0.0 2.0 0.02 0.47 0.02 96 1000.6
20260904022405 53 213 0.0 6.0 0.02 0.46 0.02 96 1000.5
20260904020905 53 213 1.0 7.0 0.01 0.46 0.01 97 1000.6
20260904015905 53 213 0.0 2.0 0.01 0.46 0.01 97 1000.7
20260904015404 53 213 0.0 1.0 0.00 0.45 0.00 96 1000.8
20260904014904 53 213 0.0 7.0 0.00 0.45 0.00 96 1000.8
20260904014405 53 213 0.0 0.0 0.00 0.45 0.00 96 1000.8
20260904013905 53 213 0.0 0.0 0.00 0.45 0.00 96 1000.9
20260904013405 53 213 0.0 1.0 0.00 0.45 0.00 96 1001.0
20260904012904 53 213 2.0 10.0 0.00 0.46 0.00 96 1001.2
20260904011905 53 210 2.0 5.0 0.00 0.46 0.00 96 1001.3
20260904010905 53 210 0.0 2.0 0.00 0.46 0.00 96 1001.2
20260904010405 54 210 1.0 7.0 0.00 0.46 0.00 96 1001.4
20260904005905 54 210 2.0 6.0 0.00 0.46 0.00 96 1001.5
20260904005405 54 210 0.0 3.0 0.00 0.46 0.00 96 1001.5
20260904004905 54 210 0.0 0.0 0.00 0.46 0.00 96 1001.5
20260904004404 54 210 0.0 1.0 0.00 0.46 0.00 96 1001.6
20260904003905 54 210 0.0 3.0 0.00 0.46 0.00 97 1001.5
20260904003404 54 210 0.0 3.0 0.00 0.46 0.00 96 1001.6
20260904002905 54 210 0.0 0.0 0.00 0.46 0.00 96 1001.6
20260904002404 54 210 0.0 2.0 0.00 0.46 0.00 96 1001.6
20260904001904 54 210 0.0 1.0 0.00 0.46 0.00 96 1001.6
20260904001404 54 210 0.0 2.0 0.00 0.46 0.00 96 1001.6
20260904000904 54 210 0.0 0.0 0.00 0.46 0.00 96 1001.7
20260904000405 54 210 0.0 0.0 0.00 0.46 0.00 96 1001.7
20260903235905 54 210 0.0 0.0 0.00 0.46 0.00 96 1001.8
20260903235405 54 210 1.0 3.0 0.00 0.46 0.00 96 1002.0
20260903234904 54 210 0.0 1.0 0.00 0.46 0.00 96 1001.9
20260903234405 55 210 0.0 0.0 0.00 0.46 0.00 96 1001.9
20260903233905 55 210 0.0 0.0 0.00 0.46 0.00 96 1002.0
20260903233405 55 210 0.0 0.0 0.00 0.46 0.00 96 1002.1
20260903232905 55 210 0.0 0.0 0.00 0.47 0.00 96 1002.1
20260903232404 55 210 0.0 0.0 0.00 0.47 0.00 96 1002.2
20260903231905 55 210 0.0 0.0 0.00 0.47 0.00 96 1002.3
20260903231404 55 210 0.0 0.0 0.01 0.48 0.00 96 1002.4
20260903230405 55 210 0.0 0.0 0.01 0.50 0.00 96 1002.6
20260903225403 56 210 0.0 0.0 0.01 0.50 0.50 96 1002.7
20260903224903 56 210 0.0 0.0 0.02 0.50 0.50 96 1002.7
20260903224404 56 210 2.0 6.0 0.02 0.51 0.50 96 1002.7
20260903223903 56 210 2.0 7.0 0.02 0.51 0.50 96 1002.8
20260903223406 56 210 1.0 5.0 0.03 0.52 0.50 96 1002.9
20260903222404 56 210 2.0 3.0 0.04 0.55 0.50 96 1002.8
20260903221904 56 210 3.0 8.0 0.06 0.56 0.50 96 1002.9
20260903220904 56 209 2.0 6.0 0.08 0.56 0.49 96 1002.8
20260903215904 56 210 2.0 10.0 0.11 0.56 0.49 96 1003.0
20260903215404 56 201 4.0 14.0 0.11 0.56 0.49 96 1002.9
20260903214405 56 208 5.0 9.0 0.10 0.57 0.48 96 1003.1
20260903213904 56 207 5.0 12.0 0.10 0.57 0.47 96 1003.1
20260903213405 56 207 3.0 7.0 0.09 0.56 0.46 96 1003.2
20260903212404 56 206 0.0 3.0 0.14 0.56 0.46 96 1003.3
20260903211904 56 206 1.0 7.0 0.13 0.55 0.43 96 1003.4
20260903211404 56 206 3.0 13.0 0.13 0.55 0.43 96 1003.3
20260903210404 56 215 3.0 12.0 0.09 0.52 0.39 96 1003.5
20260903205904 56 216 3.0 7.0 0.09 0.52 0.38 96 1003.4
20260903205405 56 212 2.0 7.0 0.09 0.53 0.38 96 1003.4
20260903204404 56 211 2.0 7.0 0.09 0.53 0.38 96 1003.6
20260903203404 56 212 6.0 14.0 0.08 0.52 0.37 96 1003.5
20260903201404 56 207 3.0 7.0 0.06 0.46 0.30 96 1003.7
20260903200905 56 207 2.0 5.0 0.06 0.45 0.29 95 1003.9
20260903195904 56 206 1.0 7.0 0.06 0.45 0.29 95 1003.9
20260903195404 56 206 0.0 3.0 0.06 0.45 0.29 95 1004.1
20260903194904 56 206 0.0 2.0 0.06 0.45 0.29 95 1004.2
20260903194405 56 206 4.0 6.0 0.06 0.45 0.29 95 1004.3
20260903193404 56 205 2.0 7.0 0.06 0.45 0.29 95 1004.3
20260903192404 56 208 3.0 9.0 0.05 0.43 0.28 95 1004.4
20260903191903 56 201 4.0 12.0 0.03 0.42 0.26 95 1004.5
20260903191404 56 207 2.0 7.0 0.01 0.39 0.24 95 1004.5
20260903190904 56 207 0.0 2.0 0.01 0.39 0.24 95 1004.4
20260903190404 56 207 1.0 3.0 0.01 0.39 0.24 95 1004.4
20260903185903 57 207 0.0 0.0 0.01 0.39 0.24 95 1004.4
20260903185404 57 207 0.0 1.0 0.01 0.39 0.24 95 1004.5
20260903184904 57 207 0.0 2.0 0.02 0.39 0.24 95 1004.4
20260903184404 57 207 2.0 6.0 0.08 0.39 0.23 95 1004.5
20260903183904 57 207 2.0 9.0 0.09 0.39 0.23 95 1004.6
20260903183404 57 203 6.0 14.0 0.09 0.39 0.23 95 1004.5
20260903182904 57 217 2.0 12.0 0.13 0.39 0.23 95 1004.5
20260903182404 57 209 4.0 12.0 0.13 0.39 0.23 95 1004.6
20260903181904 58 199 4.0 12.0 0.13 0.39 0.23 95 1004.6
20260903181404 58 214 5.0 10.0 0.13 0.39 0.23 95 1004.5
20260903180904 58 219 3.0 10.0 0.13 0.39 0.23 95 1004.6
20260903180404 58 207 5.0 12.0 0.13 0.39 0.23 95 1004.7
20260903175904 58 213 5.0 12.0 0.13 0.39 0.23 94 1004.7
20260903175404 58 207 4.0 12.0 0.13 0.39 0.23 94 1004.7
20260903173904 58 199 4.0 8.0 0.06 0.30 0.14 94 1004.7
20260903173404 58 200 1.0 2.0 0.05 0.29 0.13 93 1004.7
20260903172904 58 200 1.0 6.0 0.02 0.26 0.10 93 1004.8
20260903172404 58 200 2.0 7.0 0.01 0.25 0.09 93 1004.8
20260903171904 58 200 2.0 10.0 0.01 0.25 0.09 93 1005.0
20260903170904 58 230 1.0 6.0 0.01 0.25 0.09 93 1005.0
20260903165904 58 213 2.0 7.0 0.01 0.25 0.09 92 1005.1
20260903165404 59 218 2.0 9.0 0.01 0.25 0.09 92 1005.1
20260903164903 59 221 3.0 10.0 0.00 0.24 0.09 91 1005.1
20260903164403 59 214 3.0 10.0 0.00 0.24 0.09 91 1005.2
20260903163903 59 215 6.0 12.0 0.00 0.24 0.09 91 1005.3
20260903163403 59 215 5.0 12.0 0.00 0.24 0.09 91 1005.3
20260903161404 59 203 1.0 9.0 0.00 0.24 0.09 92 1005.9
20260903160903 59 201 2.0 8.0 0.00 0.24 0.09 92 1006.0
20260903155904 59 188 1.0 5.0 0.00 0.24 0.09 93 1006.2
20260903155403 58 187 4.0 12.0 0.00 0.24 0.09 93 1006.3
20260903154903 58 209 1.0 7.0 0.00 0.24 0.09 94 1006.3
20260903154404 58 218 2.0 7.0 0.00 0.24 0.09 94 1006.3
20260903153903 58 196 1.0 5.0 0.00 0.24 0.09 94 1006.3
20260903153403 58 196 1.0 5.0 0.01 0.24 0.09 94 1006.4
20260903152904 58 196 2.0 8.0 0.01 0.24 0.09 93 1006.5
20260903152403 58 212 2.0 7.0 0.01 0.24 0.09 94 1006.5
20260903151903 58 211 0.0 6.0 0.01 0.24 0.09 94 1006.5
20260903151403 58 209 3.0 8.0 0.01 0.24 0.09 94 1006.7
20260903150903 59 202 3.0 7.0 0.02 0.24 0.09 95 1006.6
20260903150403 59 201 3.0 8.0 0.02 0.24 0.09 95 1006.8
20260903145903 59 215 2.0 8.0 0.02 0.24 0.09 95 1006.7
20260903145404 58 215 3.0 8.0 0.02 0.24 0.09 95 1006.8
20260903144904 58 217 2.0 7.0 0.02 0.24 0.09 96 1006.8
20260903144404 58 212 2.0 9.0 0.02 0.24 0.09 96 1006.7
20260903143905 58 211 2.0 6.0 0.04 0.24 0.09 96 1006.8
20260903143404 58 211 2.0 6.0 0.03 0.24 0.08 96 1007.0
20260903142904 58 211 0.0 5.0 0.03 0.24 0.08 96 1007.0
20260903142404 58 211 3.0 7.0 0.03 0.24 0.08 95 1007.2
20260903141404 58 211 2.0 7.0 0.03 0.24 0.08 95 1007.4
20260903135903 58 211 1.0 3.0 0.02 0.23 0.07 95 1007.3
20260903134405 58 211 1.0 3.0 0.02 0.22 0.06 93 1007.4
20260903133903 59 211 2.0 7.0 0.00 0.20 0.05 91 1007.2
20260903132904 59 217 3.0 9.0 0.00 0.20 0.05 89 1007.3
20260903132403 60 203 2.0 7.0 0.00 0.20 0.05 89 1007.2
20260903131903 60 203 3.0 7.0 0.00 0.20 0.05 90 1007.1
20260903131404 60 203 2.0 7.0 0.00 0.20 0.05 89 1007.1
20260903130903 60 205 3.0 8.0 0.00 0.20 0.05 89 1007.0
20260903130404 60 205 3.0 9.0 0.00 0.20 0.05 89 1007.0
20260903125403 59 206 1.0 6.0 0.00 0.20 0.05 91 1007.2
20260903124903 59 206 4.0 7.0 0.00 0.20 0.05 90 1007.3
20260903124403 59 205 5.0 9.0 0.00 0.20 0.05 90 1007.4
20260903123903 59 207 2.0 7.0 0.00 0.20 0.05 90 1007.4
20260903123403 59 213 4.0 12.0 0.00 0.20 0.05 88 1007.4
20260903122904 59 211 5.0 12.0 0.00 0.20 0.05 89 1007.7
20260903122403 60 205 3.0 8.0 0.00 0.20 0.05 89 1007.8
20260903121403 60 213 5.0 12.0 0.00 0.20 0.05 90 1007.7
20260903120904 60 204 6.0 12.0 0.00 0.20 0.05 91 1007.7
20260903120403 59 212 4.0 8.0 0.00 0.20 0.05 92 1007.8
20260903115903 59 213 5.0 8.0 0.00 0.20 0.05 91 1007.6
20260903115403 59 219 3.0 10.0 0.00 0.20 0.05 90 1007.5
20260903114903 59 210 6.0 10.0 0.00 0.20 0.05 91 1007.3
20260903114403 59 213 5.0 12.0 0.00 0.20 0.05 91 1007.4
20260903113903 59 205 5.0 10.0 0.00 0.20 0.05 91 1007.3
20260903113404 59 216 5.0 9.0 0.00 0.20 0.05 91 1007.3
20260903112903 59 206 5.0 13.0 0.00 0.20 0.05 90 1007.4
20260903112404 59 205 2.0 8.0 0.00 0.20 0.05 89 1007.4
20260903111903 59 209 4.0 12.0 0.00 0.20 0.05 88 1007.4
20260903110903 60 211 1.0 8.0 0.00 0.20 0.05 89 1007.4
20260903110404 61 211 3.0 9.0 0.00 0.20 0.05 89 1007.5
20260903105903 61 212 1.0 9.0 0.00 0.20 0.05 91 1007.5
20260903105404 60 213 0.0 7.0 0.00 0.20 0.05 90 1007.5
20260903104903 60 213 2.0 3.0 0.00 0.20 0.05 90 1007.6
20260903104404 60 213 0.0 6.0 0.00 0.20 0.05 90 1007.7
20260903103905 60 213 1.0 5.0 0.00 0.20 0.05 90 1007.6
20260903103404 60 213 2.0 7.0 0.00 0.20 0.05 91 1007.6
20260903102403 59 212 0.0 1.0 0.00 0.20 0.05 93 1007.5
20260903101904 59 212 1.0 6.0 0.00 0.20 0.05 93 1007.5
20260903101403 58 213 1.0 5.0 0.00 0.20 0.05 93 1007.6
20260903100904 58 213 0.0 1.0 0.00 0.20 0.05 92 1007.7
20260903100403 58 213 0.0 1.0 0.00 0.20 0.05 91 1007.7
20260903095404 59 213 1.0 3.0 0.00 0.20 0.05 89 1007.7
20260903094903 60 213 3.0 7.0 0.00 0.20 0.05 86 1007.8
20260903093903 60 207 1.0 13.0 0.00 0.20 0.05 88 1007.7
20260903093404 59 212 2.0 7.0 0.00 0.20 0.05 88 1007.8
20260903092903 59 212 1.0 3.0 0.00 0.20 0.05 88 1007.8
20260903091903 59 212 2.0 7.0 0.00 0.20 0.05 88 1007.7
20260903091403 59 212 2.0 8.0 0.00 0.20 0.05 87 1007.8
20260903090904 59 212 5.0 8.0 0.00 0.20 0.05 87 1007.7
20260903090404 59 211 3.0 9.0 0.00 0.20 0.05 86 1007.8
20260903085903 59 210 2.0 10.0 0.00 0.20 0.05 87 1008.1
20260903085403 59 210 6.0 9.0 0.00 0.20 0.05 86 1008.1
20260903084903 58 206 5.0 8.0 0.00 0.20 0.05 88 1008.0
20260903083904 58 208 5.0 12.0 0.00 0.20 0.05 89 1007.8
20260903083403 57 210 2.0 6.0 0.00 0.20 0.05 89 1007.7
20260903082903 57 210 5.0 7.0 0.00 0.20 0.05 89 1007.7
20260903082403 57 210 2.0 7.0 0.00 0.20 0.05 89 1007.7
20260903081903 57 210 2.0 7.0 0.00 0.20 0.05 90 1007.7
20260903081404 57 210 1.0 3.0 0.00 0.20 0.05 90 1007.6
20260903080905 57 210 0.0 3.0 0.00 0.20 0.05 90 1007.7
20260903080403 57 210 1.0 5.0 0.00 0.20 0.05 90 1007.6
20260903075904 56 210 2.0 5.0 0.00 0.20 0.05 90 1007.6
20260903075404 56 210 2.0 7.0 0.00 0.20 0.05 90 1007.7
20260903074904 56 207 2.0 7.0 0.00 0.20 0.05 90 1007.6
20260903073904 56 212 2.0 6.0 0.00 0.20 0.05 91 1007.7
20260903073403 56 212 1.0 6.0 0.00 0.20 0.05 91 1007.8
20260903072903 56 212 3.0 10.0 0.00 0.20 0.05 91 1007.6
20260903072404 56 212 4.0 7.0 0.00 0.20 0.05 92 1007.6
20260903071404 55 213 1.0 6.0 0.00 0.20 0.05 92 1007.4